Regional Weather Roundup
Issued by NWS

Home | Current Version | Previous Version | Text Only | Print | Product List | Glossary On
Versions: 1 2 3 4 5 6 7 8 9 10 11 12 13 14 15 16 17 18 19 20 21 22 23 24 25 26 27 28 29 30 31 32 33 34 35 36 37 38 39 40 41 42 43 44 45 46 47 48 49 50
130
ASUS46 KLOX 100913
RWRCA

SOUTHERN CALIFORNIA WEATHER ROUNDUP
NATIONAL WEATHER SERVICE OXNARD CALIFORNIA
100 AM PST WED FEB 10 2016

NOTE: "FAIR" INDICATES FEW OR NO CLOUDS BELOW 12,000 FEET WITH NO
SIGNIFICANT WEATHER AND/OR OBSTRUCTIONS TO VISIBILITY.

  -  STATIONS PRECEEDED BY AN ASTERISK (*) ARE NOT NWS OR FAA
     STATIONS AND ARE NOT SUBJECT TO NWS AND FAA QUALITY CONTROL.

CAZ041-042-087-101000-
LA AND ORANGE COUNTY COASTAL AREAS


CITY           SKY/WX    TMP DP  RH WIND       PRES   REMARKS
L.A. DOWNTOWN  CLEAR     61  38  42 CALM      30.11S
L.A. AIRPORT   PTCLDY    62  41  46 CALM      30.12R
LONG BEACH     CLEAR     64  41  42 W3        30.11S

CITY           SKY/WX    TMP DP  RH WIND       PRES   REMARKS
FULLERTON      CLEAR     59  38  45 CALM      30.11R
HAWTHORNE      CLEAR     61  41  47 CALM      30.12S
*LEO CARRILLO    N/A     74  22  14 NW7         N/A
*LOS ALAMITOS  FAIR      54  42  63 CALM      30.11R
*REDONDO BEACH   N/A     58  41  54 CALM      30.11S
SANTA ANA      CLEAR     59  39  47 SW6       30.12R
STA MONICA APT CLEAR     63  37  38 CALM      30.11S
*UCLA            N/A     73  21  14 NW12      30.09S

$$

CAZ547-548-048-101000-
LA COUNTY VALLEYS AND INLAND EMPIRE


CITY           SKY/WX    TMP DP  RH WIND       PRES   REMARKS
BURBANK        CLEAR     67  23  19 NW5       30.13S
VAN NUYS       CLEAR     60  30  32 CALM      30.15R

CITY           SKY/WX    TMP DP  RH WIND       PRES   REMARKS
*CHATSWORTH      N/A     61  30  31 CALM      30.14S
CHINO          CLEAR     54  36  50 NW5       30.15R
*CLAREMONT       N/A     57  30  35 N2          N/A
MARCH AFB      CLEAR     49  28  44 NW2       30.16S
*NORTHRIDGE      N/A     61  27  27 CALM        N/A
ONTARIO        PTCLDY    57  30  35 CALM      30.14S
*PASADENA        N/A     66  30  26 CALM        N/A
RIVERSIDE      CLEAR     59  31  34 NE7       30.15R
SAN BERNARDINO NOT AVBL
*SAN GABRIEL     N/A     59  38  45 W3        30.20R
*SAN RAFAEL HI   N/A     70  17  13 N6          N/A
*SAUGUS          N/A     63  25  23 N5          N/A
*WHITEMAN AP   NOT AVBL
*WHITTIER HILL   N/A     73  26  17 NE6         N/A
*WOODLAND HILL   N/A     54  30  40 E1          N/A

$$

CAZ054-055-101000-
LA AND SAN BERNARDINO COUNTY MOUNTAINS


CITY           SKY/WX    TMP DP  RH WIND       PRES   REMARKS
*ACTON           N/A     57  22  26 W5          N/A
*BIG BEAR AIRP SUNNY     27  18  69 CALM      30.44R
*BIG PINES       N/A     48   4  16 CALM        N/A
SANDBERG       CLEAR     58  21  24 E13       30.33F
*WARM SPRINGS    N/A     60  44  55 NE18        N/A

$$

CAZ028-029-059-060-099-101000-
ANTELOPE VALLEY AND SURROUNDING AREAS


CITY           SKY/WX    TMP DP  RH WIND       PRES   REMARKS
LANCASTER      CLEAR     42  29  59 W3        30.28S
PALMDALE       CLEAR     41  28  60 SW8       30.29R
*POPPY PARK      N/A     45  23  41 W3          N/A

CITY           SKY/WX    TMP DP  RH WIND       PRES   REMARKS
29 PALMS       PTCLDY    47  21  35 S3        30.30F
BARSTOW/DAGGET CLEAR     48  23  37 W7        30.24F
BISHOP         PTCLDY    33  24  69 N6        30.34F WCI  28
CHINA LAKE     CLEAR     44  25  47 CALM      30.27R
EDWARDS AFB    CLEAR     39  25  56 S5        30.27R
NEEDLES        CLEAR     63  26  24 NW8       30.20R
VICTORVILLE      N/A     43  23  45 CALM      30.28R

$$

CAZ039-040-101000-
VENTURA AND SANTA BARBARA COUNTY COAST


CITY           SKY/WX    TMP DP  RH WIND       PRES   REMARKS
CAMARILLO      CLEAR     53  38  56 CALM      30.12F
NWS OXNARD       N/A     55  34  44 N3        30.11S
OXNARD AIRPORT CLEAR     62  32  32 NE8       30.13S
*POINT MUGU    CLEAR     53  40  61 N8        30.13S
SBA APT/GOLETA CLEAR     50  45  83 CALM      30.13S
*SANTA BARBARA   N/A     56  41  57 CALM      30.20S
*VENTURA         N/A     66  28  24 NE3       30.12S

$$

CAZ044-045-101000-
VENTURA COUNTY VALLEYS


CITY           SKY/WX    TMP DP  RH WIND       PRES   REMARKS
*SIMI VALLEY     N/A     72  29  20 E12       30.07S
*WESTLAKE VILL   N/A     48  37  66 CALM      30.14F
*OJAI            N/A     44  36  74 CALM      30.11S
*FILLMORE        N/A     53  34  48 CALM      30.04S

$$

CAZ053-101000-
VENTURA COUNTY MOUNTAINS


CITY           SKY/WX    TMP DP  RH WIND       PRES   REMARKS
*LOCKWOOD VLY    N/A     28  16  59 MISG        N/A
*ROSE VALLEY     N/A     28  25  86 MISG        N/A

$$

CAZ034-035-036-101000-
CENTRAL COAST AND SANTA YNEZ VALLEY


CITY           SKY/WX    TMP DP  RH WIND       PRES   REMARKS
SAN LUIS OBISP CLEAR     52  44  74 SE3       30.17F
SANTA MARIA    CLEAR     51  43  74 CALM      30.18F

CITY           SKY/WX    TMP DP  RH WIND       PRES   REMARKS
*CAL POLY SLO    N/A     64  45  48 N8          N/A
*PISMO BEACH     N/A     53  44  71 NE2       30.17S
*SANTA YNEZ    FAIR      45  37  76 NE5       30.20S

$$

CAZ037-038-051-101000-
SAN LUIS OBISPO COUNTY INTERIOR AND CUYAMA VALLEY


CITY           SKY/WX    TMP DP  RH WIND       PRES   REMARKS
*CUYAMA          N/A     46  36  68 SE1       30.21S
PASO ROBLES    CLEAR     45  41  86 SE3       30.23S

$$

CAZ032-033-061-101000-
SOUTHERN DESERTS


CITY           SKY/WX    TMP DP  RH WIND       PRES   REMARKS
BLYTHE         CLEAR     60  24  25 CALM      30.16S
IMPERIAL       CLEAR     53  29  39 W3        30.12R
PALM SPRINGS   PTCLDY    63  26  24 NW6       30.16F
THERMAL        PTCLDY    56  30  37 N6        30.12S

$$

ELSEWHERE ACROSS THE WESTERN UNITED STATES AND MEXICO


CITY           SKY/WX    TMP DP  RH WIND       PRES   REMARKS
DEATH VALLEY,    N/A     61  29  30 CALM        N/A
DENVER, CO     CLOUDY    39  15  37 SW17      30.17F WCI  30
GRAND CANYON,  PTCLDY    25  17  72 NE3       30.43R
HONOLULU, HI   PTCLDY    68  61  77 CALM      30.08R
KAHULUI, MAUI  MOCLDY    63  61  94 SE6       30.09S
LAKE TAHOE, CA MOCLDY    28  24  85 CALM      30.41S
LAS VEGAS, NV  PTCLDY    52  27  38 SW3       30.23F
MAMMOTH LAKES, FAIR      27  19  74 CALM      30.46S
MEXICO CITY, M CLOUDY    46  37  71 E7        30.40F
PHOENIX, AZ    CLEAR     68  19  15 E8        30.14R
PORTLAND, OR   MOCLDY    45  39  79 CALM      30.15S
RENO, NV       CLOUDY    37  31  78 N3        30.37F
SALT LAKE CITY FOG       26  24  92 N5        30.47F VSB 1/4 WCI  20
SAN DIEGO, CA  PTCLDY    63  39  41 CALM      30.12S
SAN FRANCISCO, PTCLDY    54  49  83 SW3       30.20S
SAN JOSE, CA   CLEAR     54  46  74 CALM      30.20S
SEATTLE, WA    PTCLDY    49  42  77 SE5       30.12S
TIJUANA, MEX   CLEAR     61  28  29 CALM      30.14S

$$

STATION/POSITION TIME  TEMP    WIND        PRES    VSBY  WAVE
                       AIR SEA DIR/SP/G                  HT/PER
                 (UTC) (F)     (DEG/KT/KT) (MB)    (MI)  (FT/S)
POINT ARGUELLO B NOT AVBL
WEST SANTA BARBA 0850   62 57  330/  8/ 10 1019.9F         5/14
POINT CONCEPTION NOT AVBL
EAST SANTA BARBA 0900   60 57  240/  6/  8 1020.5S
SANTA MONICA BAY 0850   63 60  330/ 12/ 14 1019.7F         3/14



USA.gov is the U.S. government's official web portal to all federal, state and local government web resources and services.